F6HBW-13 Weather Reports


time (UTC)temp
F
wind
direction
speed
knots
gust
knots
rain 1hr
in
rain 24hr
in
rain mn
in
humidity
%
barometer
mb
20260506164728 60 29 0.0 1.7 0.00 0.24 0.05 65 1010.8
20260506164302 60 15 0.0 2.6 0.00 0.24 0.05 65 1010.7
20260506163654 60 47 0.0 7.0 0.00 0.24 0.05 65 1010.7
20260506162719 60 69 0.0 1.7 0.00 0.24 0.05 64 1010.7
20260506161705 60 65 0.0 2.6 0.00 0.24 0.05 66 1010.7
20260506161318 60 84 0.0 2.6 0.00 0.24 0.05 66 1010.7
20260506160704 60 65 0.0 3.5 0.00 0.24 0.05 64 1010.8
20260506155711 60 46 0.9 7.0 0.00 0.24 0.05 65 1010.7
20260506154718 61 55 0.9 5.2 0.00 0.24 0.05 65 1010.6
20260506154311 61 37 1.7 5.2 0.00 0.24 0.05 65 1010.6
20260506153720 61 40 0.0 0.0 0.00 0.24 0.05 66 1010.7
20260506152707 61 49 0.0 1.7 0.00 0.24 0.05 67 1010.6
20260506151716 60 73 0.0 3.5 0.00 0.24 0.05 65 1010.6
20260506151330 61 73 0.9 5.2 0.00 0.24 0.05 66 1010.6
20260506150655 61 67 0.9 7.0 0.00 0.24 0.05 67 1010.7
20260506145703 60 12 0.9 7.0 0.00 0.24 0.05 67 1010.7
20260506144708 60 14 0.9 7.8 0.00 0.24 0.05 70 1010.7
20260506144320 60 53 1.7 7.8 0.00 0.24 0.05 71 1010.8
20260506143723 60 38 0.9 7.0 0.00 0.24 0.05 70 1010.8
20260506142709 59 67 3.5 7.8 0.00 0.24 0.05 70 1010.8
20260506141655 59 46 1.7 7.8 0.00 0.24 0.05 70 1010.8
20260506141310 59 30 3.5 7.8 0.00 0.24 0.05 71 1010.8
20260506140655 59 13 0.9 4.3 0.00 0.24 0.05 74 1010.8
20260506135700 59 2 2.6 8.7 0.00 0.31 0.05 75 1010.9
20260506134707 59 28 1.7 9.6 0.00 0.31 0.05 73 1010.8
20260506134323 59 2 2.6 9.6 0.00 0.31 0.05 73 1010.8
20260506133707 59 11 2.6 9.6 0.00 0.31 0.05 74 1010.8
20260506132710 58 55 1.7 8.7 0.00 0.31 0.05 75 1010.8
20260506131655 58 60 3.5 7.8 0.00 0.31 0.05 76 1010.7
20260506131310 58 52 1.7 6.1 0.00 0.31 0.05 75 1010.7
20260506130654 58 73 2.6 8.7 0.00 0.31 0.05 77 1010.7
20260506125658 58 21 1.7 7.8 0.00 0.31 0.05 78 1010.6
20260506124705 58 49 1.7 8.7 0.00 0.31 0.05 78 1010.5
20260506124317 58 59 3.5 7.8 0.00 0.31 0.05 78 1010.5
20260506123704 57 51 1.7 9.6 0.00 0.31 0.05 76 1010.5
20260506122713 57 68 3.5 10.4 0.00 0.31 0.05 76 1010.4
20260506121657 57 55 4.3 11.3 0.00 0.31 0.05 78 1010.3
20260506121309 57 36 4.3 7.8 0.00 0.31 0.05 79 1010.3
20260506120656 57 67 2.6 7.8 0.00 0.31 0.05 79 1010.2
20260506115702 57 80 4.3 8.7 0.00 0.31 0.05 79 1010.3
20260506114709 57 70 1.7 7.0 0.00 0.31 0.05 80 1010.4
20260506114302 57 64 2.6 7.8 0.00 0.31 0.05 80 1010.3
20260506113707 56 32 1.7 5.2 0.00 0.31 0.05 82 1010.4
20260506112656 56 57 1.7 7.8 0.00 0.31 0.05 82 1010.3
20260506111659 56 24 2.6 7.0 0.00 0.31 0.05 85 1010.3
20260506111334 56 61 3.5 8.7 0.00 0.31 0.05 85 1010.3
20260506110657 56 13 4.3 8.7 0.00 0.31 0.05 87 1010.3
20260506105721 55 53 1.7 8.7 0.00 0.31 0.05 88 1010.3
20260506104702 55 19 4.3 8.7 0.00 0.31 0.05 89 1010.3
20260506104314 54 33 1.7 7.8 0.00 0.31 0.05 90 1010.2
20260506103658 54 53 1.7 7.8 0.00 0.31 0.05 90 1010.3
20260506102700 54 19 2.6 9.6 0.00 0.31 0.05 92 1010.2
20260506101720 53 7 3.5 10.4 0.00 0.31 0.05 91 1010.1
20260506101310 52 51 4.3 10.4 0.00 0.31 0.05 91 1010.1
20260506100657 52 28 3.5 8.7 0.04 0.31 0.05 91 1010.1
20260506095702 52 30 4.3 8.7 0.04 0.59 0.05 91 1010.0
20260506094707 53 37 2.6 8.7 0.04 0.59 0.05 92 1009.8
20260506094321 53 38 4.3 9.6 0.04 0.59 0.05 92 1009.8
20260506093706 53 31 5.2 9.6 0.04 0.59 0.05 92 1009.7
20260506092654 53 32 1.7 7.0 0.04 0.59 0.05 93 1009.6
20260506091659 53 59 2.6 8.7 0.04 0.59 0.05 93 1009.5
20260506091313 53 17 3.5 6.1 0.00 0.55 0.04 93 1009.5
20260506090659 52 44 2.6 6.1 0.00 0.55 0.04 93 1009.5
20260506085701 52 31 0.9 7.8 0.00 1.46 0.04 93 1009.4
20260506084705 52 61 1.7 8.7 0.00 1.46 0.04 93 1009.2
20260506084258 52 64 3.5 8.7 0.00 1.46 0.04 93 1009.2
20260506083703 52 29 2.6 7.0 0.00 1.46 0.04 93 1009.2
20260506082710 52 30 2.6 10.4 0.00 1.46 0.04 93 1009.0
20260506081711 52 21 2.6 7.8 0.00 1.46 0.04 93 1008.8
20260506081305 52 12 4.3 6.1 0.00 1.46 0.04 93 1008.9
20260506080711 52 46 2.6 6.1 0.00 1.46 0.04 93 1008.8
20260506072730 52 42 4.3 9.6 0.00 2.20 0.04 93 1008.5
20260506071715 52 73 4.3 8.7 0.00 2.20 0.04 93 1008.4
20260506071327 52 31 4.3 8.7 0.00 2.20 0.04 93 1008.4
20260506070713 52 59 3.5 5.2 0.00 2.20 0.04 93 1008.3
20260506061704 52 32 0.9 4.3 0.00 3.23 0.04 94 1008.0
20260506061257 52 29 0.9 4.3 0.00 3.23 0.04 94 1007.9
20260506060705 52 11 1.7 4.3 0.00 3.23 0.04 94 1007.9
20260506051301 52 2 0.0 0.0 0.00 4.25 0.04 93 1007.6
20260506050709 52 2 0.0 0.0 0.00 4.25 0.04 93 1007.6
20260506044704 52 2 0.0 0.0 0.00 5.83 0.04 93 1007.4
20260506044258 52 2 0.0 0.0 0.00 5.83 0.04 93 1007.4
20260506043708 52 2 0.0 0.0 0.00 5.83 0.04 93 1007.3
20260506042655 52 357 0.0 0.0 0.00 5.83 0.04 93 1007.3
20260506041701 52 357 0.0 0.0 0.00 5.83 0.04 93 1007.2
20260506041316 52 357 0.0 0.0 0.00 5.83 0.04 93 1007.2
20260506040724 52 357 0.0 0.0 0.00 5.83 0.04 93 1007.1
20260506035710 52 357 0.0 0.0 0.00 5.87 0.04 93 1007.0
20260506034658 52 357 0.0 0.0 0.04 5.87 0.04 93 1007.1
20260506034312 52 357 0.0 0.0 0.04 5.87 0.04 93 1007.1
20260506033700 52 357 0.0 0.0 0.04 5.87 0.04 93 1007.2
20260506032707 52 357 0.0 0.0 0.04 5.87 0.04 93 1007.3
20260506031713 53 357 0.0 0.0 0.04 5.87 0.04 93 1007.4
20260506031306 53 357 0.0 0.0 0.04 5.87 0.04 93 1007.4
20260506030713 53 357 0.0 0.0 0.04 5.87 0.04 93 1007.4
20260506025701 53 357 0.0 0.0 0.00 6.06 0.03 93 1007.5
20260506024656 53 357 0.0 0.0 0.00 6.06 0.03 93 1007.6
20260506024303 53 357 0.0 0.0 0.04 6.06 0.03 93 1007.5
20260506023655 53 357 0.0 0.0 0.04 6.06 0.03 93 1007.5
20260506022720 53 357 0.0 0.0 0.04 6.06 0.03 93 1007.5
20260506021704 53 357 0.0 0.0 0.04 6.06 0.03 93 1007.6
20260506021259 53 357 0.0 0.0 0.08 6.06 0.03 93 1007.6
20260506020708 53 357 0.0 0.0 0.08 6.06 0.03 93 1007.6
20260506015701 53 277 0.0 0.0 0.12 6.06 0.03 93 1007.6
20260506014708 53 277 0.0 0.0 0.12 6.06 0.03 93 1007.7
20260506014259 53 277 0.0 0.0 0.08 6.02 0.02 93 1007.6
20260506013712 53 277 0.0 0.0 0.08 6.02 0.02 93 1007.6
20260506012723 53 277 0.0 0.0 0.08 6.02 0.02 92 1007.7
20260506011707 53 277 0.0 0.0 0.08 6.02 0.02 93 1007.6
20260506011315 53 277 0.0 0.0 0.04 5.98 0.02 93 1007.7
20260506010707 53 277 0.0 0.0 0.04 5.98 0.02 93 1007.8
20260506005711 53 277 0.0 0.0 0.00 5.94 0.01 92 1007.9
20260506004657 53 277 0.0 0.0 0.00 5.94 0.01 92 1008.0
20260506004306 53 277 0.0 0.0 0.00 5.94 0.01 92 1008.0
20260506003657 53 277 0.0 0.0 0.04 5.94 0.01 92 1008.0
20260506002706 53 277 0.0 0.0 0.04 5.94 0.01 92 1008.0
20260506001712 53 277 0.0 0.0 0.04 5.94 0.01 92 1008.0
20260506001301 53 277 0.0 0.0 0.04 5.94 0.01 92 1008.1
20260506000734 53 277 0.0 0.0 0.04 5.94 0.01 92 1008.1
20260505235702 53 277 0.0 0.0 0.04 5.94 0.01 92 1008.2
20260505234711 53 277 0.0 0.0 0.04 5.94 0.01 92 1008.2
20260505234301 53 277 0.0 0.0 0.00 5.91 0.00 92 1008.1
20260505233710 53 277 0.0 0.0 0.00 5.91 0.00 92 1008.1
20260505232700 53 277 0.0 0.0 0.00 5.91 0.00 92 1008.2
20260505231725 53 277 0.0 0.0 0.00 5.91 0.00 92 1008.2
20260505231314 53 277 0.0 0.0 0.00 5.91 0.00 92 1008.3
20260505230724 53 277 0.0 0.0 0.00 5.91 0.00 92 1008.3
20260505225729 53 273 0.0 0.0 0.00 5.91 0.00 92 1008.3
20260505224658 53 273 0.0 0.0 0.00 5.91 0.00 91 1008.4
20260505224308 53 273 0.0 0.0 0.00 5.91 0.00 91 1008.4
20260505223657 53 273 0.0 0.0 0.00 5.91 0.00 91 1008.5
20260505222705 53 273 0.0 0.0 0.00 5.91 0.00 91 1008.5
20260505221726 53 273 0.0 0.0 0.00 5.91 0.00 91 1008.4
20260505221319 53 273 0.0 0.0 0.00 5.91 0.00 91 1008.5
20260505220727 53 273 0.0 0.0 0.00 5.91 0.00 91 1008.5
20260505215705 54 273 0.0 0.0 0.00 5.91 1.18 91 1008.5
20260505214715 54 273 0.0 0.0 0.00 5.91 1.18 91 1008.6
20260505214331 54 273 0.0 0.0 0.00 5.91 1.18 91 1008.6
20260505213658 54 273 0.0 0.0 0.00 5.91 1.18 91 1008.6
20260505212729 54 273 0.0 0.0 0.00 5.91 1.18 91 1008.6
20260505211656 54 273 0.0 0.0 0.00 5.91 1.18 91 1008.5
20260505211309 54 273 0.0 0.0 0.00 5.91 1.18 91 1008.5
20260505210658 54 273 0.0 0.0 0.00 5.91 1.18 91 1008.6
20260505205708 54 273 0.0 0.0 0.00 5.91 1.18 90 1008.6
20260505204717 54 273 0.0 0.0 0.00 5.91 1.18 90 1008.5
20260505204330 54 273 0.0 0.0 0.00 5.91 1.18 90 1008.4
20260505203657 54 273 0.0 0.0 0.00 5.91 1.18 90 1008.4
20260505202728 54 273 0.0 0.0 0.00 5.91 1.18 89 1008.4
20260505201712 54 273 0.0 0.0 0.00 5.91 1.18 89 1008.2
20260505201306 54 273 0.0 0.0 0.00 5.91 1.18 89 1008.2
20260505200714 54 273 0.0 0.0 0.00 5.91 1.18 90 1008.1
20260505195704 54 273 0.0 0.0 0.00 5.98 1.18 89 1008.1
20260505194715 55 273 0.0 0.0 0.00 5.98 1.18 89 1008.0
20260505194308 55 273 0.0 0.0 0.00 5.98 1.18 89 1008.2
20260505193657 55 273 0.0 0.0 0.00 5.98 1.18 89 1008.2
20260505192707 55 273 0.0 0.0 0.00 5.98 1.18 89 1008.3
20260505191656 55 2 0.0 0.0 0.00 5.98 1.18 88 1008.4
20260505191310 55 2 0.0 0.0 0.00 5.98 1.18 88 1008.4
20260505190659 55 2 0.0 0.0 0.00 5.98 1.18 88 1008.3
20260505185709 55 2 0.0 0.0 0.00 6.18 1.18 88 1008.2
20260505184719 55 2 0.0 0.0 0.00 6.18 1.18 88 1008.1
20260505184312 55 2 0.0 0.0 0.00 6.18 1.18 88 1008.1
20260505183701 55 2 0.0 0.0 0.00 6.18 1.18 88 1008.1
20260505182730 56 2 0.0 1.7 0.00 6.18 1.18 88 1008.1
20260505181735 56 2 0.0 1.7 0.00 6.18 1.18 88 1007.9
20260505181309 56 2 0.0 3.5 0.00 6.18 1.18 87 1007.9
20260505180658 56 346 0.0 0.9 0.00 6.18 1.18 87 1007.9
20260505175706 56 346 0.0 1.7 0.00 7.05 1.18 87 1007.8
20260505174656 57 313 0.0 3.5 0.00 7.05 1.18 87 1007.8
20260505174310 57 2 0.0 5.2 0.00 7.05 1.18 86 1007.7
20260505173659 57 340 0.9 5.2 0.00 7.05 1.18 87 1007.7
20260505172709 57 296 0.0 4.3 0.00 7.05 1.18 87 1007.9
20260505171700 58 344 0.0 4.3 0.00 7.05 1.18 87 1007.6
20260505171310 58 7 0.0 7.0 0.00 7.05 1.18 87 1007.6
20260505170721 58 7 1.7 7.8 0.00 7.05 1.18 87 1007.5
20260505165708 58 335 0.9 2.6 0.00 7.17 1.18 87 1007.4